Location: Unspecified
(0.0000°N, 0.0000°E)
Time: 12:40:22
(UTC+00:00)

S-56A Canister/Altair - Visible Passes

Search period start: 07 October 2022 00:00
Search period end: 17 October 2022 00:00
Orbit: 637 x 2496 km, 38.9° (Epoch: 06 October)

Date Brightness Start Highest point End Pass type
(mag) Time Alt. Az. Time Alt. Az. Time Alt. Az.
07 Oct 10.4 18:10:48 10° SSW 18:22:12 38° SE 18:34:18 13° E visible
07 Oct 9.8 20:14:45 10° SW 20:28:59 80° NW 20:31:47 66° NNE visible
07 Oct 11.4 22:24:21 10° W 22:29:16 20° WNW 22:29:16 20° WNW visible
08 Oct 9.8 19:41:34 10° SW 19:55:20 89° NW 20:01:34 46° NE visible
08 Oct 11.0 21:50:02 10° W 21:59:03 30° WNW 21:59:03 30° WNW visible
09 Oct 9.8 19:08:30 10° SW 19:21:43 83° SE 19:31:23 29° NE visible
09 Oct 10.7 21:15:59 10° W 21:28:52 37° NW 21:28:52 37° NW visible
10 Oct 9.9 18:35:36 10° SW 18:48:09 74° SE 19:01:11 16° NE visible
10 Oct 10.6 20:42:10 10° WSW 20:55:15 42° NW 20:58:40 38° NNW visible
11 Oct 9.9 18:02:49 10° SW 18:14:39 65° SE 18:29:34 10° ENE visible
11 Oct 10.5 20:08:32 10° WSW 20:21:33 48° NW 20:28:28 32° N visible
11 Oct 11.6 22:22:37 10° WNW 22:25:57 13° NW 22:25:57 13° NW visible
12 Oct 10.1 04:56:35 10° N 05:00:53 17° NNE 05:04:25 10° ENE visible
12 Oct 10.4 19:35:07 10° WSW 19:47:53 54° NW 19:58:13 23° NNE visible
12 Oct 11.4 21:47:24 10° WNW 21:55:42 18° NW 21:55:42 18° NW visible
13 Oct 10.3 04:23:52 10° N 04:27:57 15° NNE 04:31:21 10° ENE visible
13 Oct 10.2 19:01:52 10° WSW 19:14:14 60° NW 19:27:55 13° NE visible
13 Oct 11.3 21:12:38 10° WNW 21:22:30 21° NNW 21:25:23 20° NNW visible
14 Oct 10.5 03:51:07 10° N 03:54:55 14° NNE 03:58:10 10° NE visible
14 Oct 10.1 18:28:46 10° WSW 18:40:39 67° NW 18:55:40 10° NE visible
14 Oct 11.2 20:38:14 10° W 20:48:41 24° NNW 20:55:00 18° N visible
15 Oct 10.7 03:18:42 10° N 03:21:49 13° NNE 03:24:49 10° NE visible
15 Oct 8.4 05:20:29 10° NW 05:27:42 60° NE 05:32:46 10° ESE visible
15 Oct 10.0 17:55:50 10° SW 18:07:08 75° NW 18:22:06 10° NE visible
15 Oct 11.1 20:04:08 10° W 20:14:54 27° NW 20:24:30 14° NNE visible
16 Oct 10.8 02:48:23 12° NNE 02:48:36 12° NNE 02:51:16 10° NE visible
16 Oct 8.8 04:47:18 10° NW 04:54:59 50° NE 05:00:17 10° ESE visible
16 Oct 11.0 19:30:19 10° W 19:41:09 30° NW 19:53:32 10° NNE visible
